Regional Weather Roundup
Issued by NWS Goodland, KS

Home | Current Version | Previous Version | Text Only | Print | Product List | Glossary On
Versions: 1 2 3 4 5 6 7 8 9 10 11 12 13 14 15 16 17 18 19 20 21 22 23 24 25 26 27 28 29 30 31 32 33 34 35 36 37 38 39 40 41 42 43 44 45 46 47 48 49 50
000
ASUS43 KGLD 020408
RWRGLD

GOODLAND FORECAST AREA HOURLY WEATHER ROUNDUP
NATIONAL WEATHER SERVICE GOODLAND KS
1000 PM MDT SAT AUG 01 2015

...OFFICIAL OBSERVATIONS...

CITY           SKY/WX    TMP DP  RH WIND       PRES   REMARKS
GOODLAND KS    CLOUDY    73  58  59 S8        30.05S
HILL CITY KS   PTCLDY    77  61  57 S7        29.98R
IMPERIAL NEB   CLOUDY    74  52  46 S5        30.00F
MCCOOK NEB     CLOUDY    76  56  49 SW8       29.97F
AKRON CO       CLOUDY    72  55  55 SE14G28   30.10R
BURLINGTON CO  CLOUDY    74  61  63 S8        30.09R
LIMON CO       CLOUDY    65  51  60 N5        30.15R
$$

...UNOFFICIAL OBSERVATIONS...

CITY           SKY/WX    TMP DP  RH WIND       PRES   REMARKS
COLBY KS       CLEAR     77  61  57 SE6       30.05R
NORTON KS      CLEAR     75  54  46 S8        29.97
SHARON SPRINGS   N/A     74  66  75 SE8         N/A
KIT CARSON CO    N/A     76  63  64 MISG        N/A
YUMA CO          N/A     75  57  54 E12         N/A
$$


USA.gov is the U.S. government's official web portal to all federal, state and local government web resources and services.